Location: ?p Thanh B�nh
(16.5833°N, 107.5333°E)
Time: 05:25:27
(UTC+00:00)

Cosmos 1602 Rocket - Pass Details

Date: 29 October 2020
Orbit: 603 x 633 km, 82.5° (Epoch: 27 November)

Event Time Altitude Azimuth Distance (km) Brightness Sun altitude
Rises 22:19:34 0° 191° (S) 2,875 7.0 -7.2°
Reaches altitude 10° 22:21:48 10° 195° (SSW) 1,976 6.1 -6.7°
Maximum altitude 22:26:07 60° 275° (W) 710 3.6 -5.6°
Drops below altitude 10° 22:30:30 10° 355° (N) 1,997 6.0 -4.6°
Sets 22:32:46 0° 359° (N) 2,909 6.9 -4.1°
